Tracking 29892 objects as of 21-Nov-2024
HD Live streaming from Space Station
objects crossing your sky now

STARLINK-2537

Track STARLINK-2537 now!
10-day predictions
STARLINK-2537 is classified as:


NORAD ID: 48301
Int'l Code: 2021-036AB
Perigee: 553.3 km
Apogee: 555.3 km
Inclination: 53.1 °
Period: 95.6 minutes
Semi major axis: 6925 km
RCS: Unknown
Launch date: April 29, 2021
Source: United States (US)
Launch site: AIR FORCE EASTERN TEST RANGE (AFETR)
Your satellite tracking list
Your tracking list is empty




NASA's NSSDC Master Catalog

Two Line Element Set (TLE):
1 48301U 21036AB  24325.27987226  .00006180  00000-0  43318-3 0  9994
2 48301  53.0509  61.3262 0001480  73.1540 286.9611 15.06420225197246
Source of the keplerian elements: AFSPC